Powrót do katalogu

STARLINK-30075

AktywnyŁącznośćVLEO
NORAD 57616·PAYLOAD·🇺🇸 United States

Wystrzelony Aug 11, 2023 z Cape Canaveral Space Force Station

Loading…

Następne Przeloty (najbliższe 24 godziny)

TLE

ŚwieżeSource: CelesTrak SupGP

Epoka: Sep 14, 2026, 21:15 UTC

1 57616C 23119Q   26257.88590278  .00018702  00000+0  67743-3 0  2574
2 57616  43.0032  92.7161 0001834 267.7227 179.8206 15.27565672    14

Śledź STARLINK-30075 w czasie rzeczywistym z AllMySat

Download on the App Store